Location: Bridgewater Hill Observatory
(43.5992°N, 72.6989°W)
Time: 11:10:53
(UTC-04:00)

Daily predictions for brighter satellites

Satellite Brightness Start Highest point End
(mag) Time Altitude Azimuth Time Altitude Azimuth Time Altitude Azimuth
Cosmos 1674 3.7 19:36:47 10° NNE 19:40:04 27° ENE 19:43:20 10° SE
Meteor 1-4 Rocket 2.7 19:40:26 10° SSE 19:43:45 44° E 19:47:06 10° NNE
Cosmos 1758 3.4 19:43:40 10° S 19:47:32 53° E 19:51:27 10° NNE
Resurs 01 Rocket 1.8 19:44:11 10° SSE 19:48:29 53° ENE 19:52:48 10° N
Cosmos 1766 4.1 19:47:11 10° SSW 19:51:00 55° W 19:54:51 10° N
Cosmos 1605 Rocket 4.0 19:45:37 10° S 19:51:53 81° E 19:58:18 10° N
In-Cosmos 22 4.2 19:46:58 10° NNW 19:52:17 80° W 19:57:34 10° S
Cosmos 1867 3.6 19:46:59 10° SSW 19:52:23 71° ESE 19:57:51 10° NE
USA 186 2.7 19:51:19 11° ESE 19:52:38 16° ENE 19:54:08 10° NNE
Cosmos 1953 2.4 19:49:10 10° S 19:53:08 57° E 19:57:07 10° NNE
Envisat 4.1 19:52:01 10° ESE 19:56:07 25° ENE 20:00:14 10° N
Cosmos 1544 3.1 19:55:02 10° S 19:58:41 90° W 20:02:24 10° N
SeaSat 1 2.4 19:55:47 10° SSE 20:00:42 84° ENE 20:05:41 10° NNW
Cosmos 2369 Rocket 3.8 20:01:34 11° E 20:01:52 11° E 20:03:39 10° ENE
FENGYUN 3A 3.9 20:00:23 10° S 20:05:46 73° WSW 20:11:11 10° NNW
Cosmos 1125 Rocket 3.5 20:01:52 10° SSW 20:07:04 89° W 20:12:20 10° NNE
Cosmos 1939 Rocket 4.3 20:05:44 13° ESE 20:08:15 22° ENE 20:11:30 10° NNE
Cosmos 1048 Rocket 4.0 20:03:09 10° NNW 20:08:18 85° WSW 20:13:25 10° SSE
CZ-4B DEB 3.9 20:09:18 17° ESE 20:10:50 24° ENE 20:13:24 10° NNE
Lacrosse 5 rocket 1.1 20:07:25 10° NW 20:11:25 82° NE 20:14:25 15° SE
Cosmos 1833 Rocket 2.7 20:06:25 10° NNW 20:12:04 89° WSW 20:17:42 10° SSE
Cosmos 2344 4.3 20:04:50 10° SW 20:12:25 60° NW 20:21:16 10° NE
Helios 1B rocket 3.0 20:09:18 10° NNE 20:13:05 34° E 20:16:51 10° SSE
Cosmos 2151 4.5 20:10:31 10° NNE 20:13:30 18° ENE 20:14:49 16° E
CZ-2D R/B 3.2 20:11:14 10° SSE 20:15:05 76° ENE 20:19:00 10° N
Cosmos 1408 Rocket 3.5 20:11:23 10° N 20:15:53 75° E 20:20:19 10° SSE
Cosmos 1805 4.2 20:14:27 10° SSW 20:18:15 52° W 20:22:06 10° N
ISS -3.9 20:17:10 10° SW 20:20:25 80° SE 20:23:09 14° ENE
Resurs 1-3 3.7 20:17:10 10° S 20:21:32 81° WSW 20:25:58 10° NNW
Cosmos 1802 Rocket 4.2 20:16:04 10° SSE 20:21:51 46° E 20:27:43 10° NNE
ATLAS 5 CENTAUR R/B 1.7 20:18:45 10° SSW 20:23:26 83° SE 20:28:36 10° NE
Cosmos 2278 Rocket 3.9 20:20:19 10° WSW 20:25:30 35° NW 20:30:43 10° N
Cosmos 1733 3.1 20:26:31 10° S 20:30:23 74° E 20:34:16 10° NNE
Cosmos 1076 Rocket 4.4 20:27:16 10° NNW 20:31:23 49° W 20:35:28 10° SSW
MINOTAUR R/B 4.4 20:29:39 10° S 20:32:27 52° ESE 20:35:18 10° NNE
Cosmos 1842 Rocket 4.0 20:28:55 10° SSE 20:32:59 37° E 20:37:03 10° NNE
CZ-3B DEB 3.8 20:24:42 10° W 20:33:50 41° NNW 20:38:17 10° NE
Cosmos 1470 2.8 20:33:20 10° S 20:37:19 87° WNW 20:41:18 10° N
Cosmos 1459 Rocket 3.9 20:33:35 10° S 20:39:48 76° E 20:45:58 10° N
Helios 1A 2.9 20:36:03 10° SSE 20:40:11 89° WSW 20:44:25 10° NNW
Meteor 1-29 3.0 20:36:57 10° NNE 20:40:23 55° E 20:43:49 10° S
Cosmos 2061 Rocket 4.0 20:34:29 10° S 20:40:52 72° E 20:47:17 10° NNE
Lacrosse 5 3.8 20:40:48 10° W 20:45:04 26° NNW 20:49:20 10° NE
Timation 2 Rocket 4.5 20:39:04 10° NNW 20:45:13 58° WSW 20:51:07 10° S
Cosmos 2173 Rocket 3.9 20:43:05 10° S 20:49:17 87° E 20:55:36 10° N
Meteor 2-17 Rocket 4.4 20:43:45 10° S 20:49:49 64° E 20:55:53 10° NNE
USA 215 3.7 20:45:03 10° ENE 20:50:56 35° SE 20:56:45 10° SSW
SJ-11-01 4.2 20:49:52 23° SSE 20:52:50 74° ENE 20:57:34 10° N
SPOT 5 4.2 20:52:13 25° E 20:53:05 26° ENE 20:57:26 10° N
Cosmos 2251 Rocket 3.5 20:47:46 10° NNW 20:53:07 74° ENE 20:56:03 27° SSE
Cosmos 1340 Rocket 3.4 20:50:13 10° NNW 20:54:10 57° W 20:57:45 12° S
Cosmos 2082 Rocket 3.6 20:49:07 10° NW 20:54:17 37° WSW 20:59:24 10° S
SAR-Lupe-4 4.4 20:51:47 12° S 20:54:54 50° W 20:58:25 10° NNW
ARGOS 4.3 20:54:52 24° ENE 20:55:36 25° ENE 20:59:53 10° N
Cosmos 1356 Rocket 3.2 20:52:04 10° N 20:56:10 70° ENE 20:57:27 41° SSE
YAOGAN 6 3.1 21:01:03 43° ENE 21:01:03 43° ENE 21:04:24 10° N
Cosmos-2242 4.1 20:58:11 10° SSW 21:02:15 44° WNW 21:06:21 10° N
BREEZE-M DEB (TANK) 3.5 21:02:17 10° SW 21:06:05 72° SSE 21:19:55 10° ENE
Meteor 1-16 Rocket 4.2 21:03:32 10° S 21:09:24 83° E 21:15:23 10° NNE
Meteor 1-11 4.1 21:06:15 10° N 21:11:52 81° E 21:14:31 33° SSE
SL-14 R/B 3.3 21:10:30 10° NNW 21:14:22 73° W 21:15:15 50° SSW
Gblst 52 Del rocket 4.1 21:11:31 10° SW 21:17:24 65° SE 21:19:15 41° ENE
Cosmos 494 Rocket 4.2 21:12:33 10° NNW 21:17:39 67° WSW 21:19:57 32° S
Cosmos 2221 3.5 21:21:18 33° NE 21:21:18 33° NE 21:24:03 10° NNE
Cosmos 2016 Rocket 4.1 21:15:30 10° SSW 21:21:41 73° W 21:27:51 10° N
Cosmos 389 Rocket 3.0 21:24:14 57° NNW 21:24:14 57° NNW 21:27:14 10° N
USA 267 4.2 21:21:31 24° ENE 21:24:37 38° NNE 21:30:32 10° NW
Resurs 01 Rocket 4.5 21:22:41 10° SW 21:25:16 15° W 21:27:54 10° NW
Cosmos 2058 2.8 21:25:14 10° N 21:29:15 82° NW 21:29:15 82° NW
CZ-4C R/B 3.3 21:25:21 10° SSW 21:33:10 30° NE 21:36:16 10° NE
Cosmos 1725 Rocket 3.9 21:26:21 13° S 21:32:05 87° W 21:38:18 10° N
H-2A R/B 4.2 21:36:46 15° NNE 21:36:46 15° NNE 21:37:49 10° NNE
Envisat 4.0 21:31:29 18° SSW 21:34:54 42° W 21:39:44 10° NNW
Cosmos 1626 3.6 21:33:05 10° N 21:35:12 31° N 21:35:12 31° N
Meteor 2-1 Rocket 4.1 21:35:33 41° S 21:37:40 85° E 21:43:20 10° NNE
Cosmos 1805 Rocket 4.2 21:35:01 10° N 21:38:17 45° NNE 21:38:17 45° NNE
MetOp-B 3.9 21:41:43 75° ESE 21:42:03 79° ENE 21:47:25 10° NNW
Cosmos 1939 Rocket 4.5 21:41:38 26° SW 21:42:59 33° W 21:46:46 10° NNW
ERS-1 Rocket 3.2 21:43:12 51° SSW 21:44:13 64° WSW 21:49:15 10° NNW
Cosmos 1703 4.3 21:40:33 10° N 21:43:13 42° NNW 21:43:13 42° NNW
Cosmos 2369 Rocket 2.0 21:42:50 40° SSW 21:44:59 85° ESE 21:50:37 10° NNE
Cosmos 2346 Rocket 4.3 21:41:24 10° N 21:47:39 77° E 21:48:22 68° SE
Lacrosse 5 rocket 3.9 21:48:37 10° W 21:49:58 12° WSW 21:50:09 12° WSW
Cosmos 2151 4.1 21:47:02 10° NNW 21:50:59 38° W 21:51:27 37° WSW
Tsikada Rocket 4.4 21:48:53 10° NNW 21:55:00 60° W 21:57:31 35° SSW
ISS -1.0 21:54:23 10° WNW 21:55:49 19° NW 21:55:49 19° NW
H-2A R/B 2.8 21:59:47 44° NNE 21:59:47 44° NNE 22:03:44 10° N
NOAA 11 4.3 22:04:43 68° WSW 22:04:52 69° WSW 22:10:23 10° NNW
Cosmos 1943 Rocket 3.9 22:09:03 22° NE 22:09:03 22° NE 22:10:59 10° NNE
ATLAS 5 CENTAUR R/B 4.3 22:05:10 10° W 22:08:51 20° NNW 22:12:48 10° NNE
Lacrosse 5 4.2 22:26:10 10° NW 22:29:33 18° N 22:30:59 16° NNE
SPOT 5 4.0 22:31:28 44° W 22:31:28 44° W 22:35:59 10° NNW
Terra 3.6 22:35:21 26° N 22:35:21 26° N 22:37:27 10° N
USA 215 3.3 22:27:44 10° NE 22:34:15 73° NW 22:40:45 10° WSW
ARGOS 4.1 22:36:23 44° WNW 22:36:23 44° WNW 22:40:43 10° NNW
Cosmos 2219 4.4 22:37:45 10° NNW 22:41:12 35° N 22:41:12 35° N
CZ-3B DEB 4.2 22:42:59 10° NW 22:45:41 16° NNW 22:45:41 16° NNW
USA 267 3.8 23:08:51 55° NW 23:08:51 55° NW 23:13:46 10° NW
Cosmos 2297 Rocket 4.2 23:13:32 10° N 23:15:58 21° NNE 23:15:58 21° NNE
CZ-4C R/B 3.9 23:17:57 27° WNW 23:19:22 30° NW 23:24:48 10° NNE
H-2A R/B 4.5 23:40:24 17° WNW 23:40:24 17° WNW 23:42:18 10° NW
Cosmos 2227 Rocket 4.2 23:39:31 10° NNW 23:41:45 24° N 23:41:45 24° N
Cosmos 1943 Rocket 4.3 23:50:28 22° NW 23:50:28 22° NW 23:54:00 10° N
